Flag for Canada Weather past 2 weeks in Annapolis County, Nova Scotia, Canada

Now
71 °F

Mild.


Feels Like: 77 °F
Forecast: 54 / 68 °F
Wind: 3 mph from North

Location: Kejimkujik 1

Current Time: Sep 4, 2015 at 4:24:20 PM

Latest Report: Sep 4, 2015 at 3:00 PM


Visibility: N/A

Pressure: 30.16 "Hg

Humidity: 51%

Dew point: 52 °F

Location of Annapolis CountyLocation

Historic Weather in Annapolis County — Graph

°F

Annapolis County temperature yesterday

Maximum temperature yesterday: 82 °F (at 3:00 PM)
Minimum temperature yesterday: 60 °F (at 7:00 AM)
Average temperature yesterday: 69 °F

Past Weeks' High & Low Weather Summary

 TemperatureHumidityPressure
High83 °F (Aug 24, 3:00 PM)100% (Aug 22, 12:00 AM)30.21 "Hg (Aug 22, 12:00 AM)
Low49 °F (Sep 2, 6:00 AM)46% (Sep 1, 5:00 PM)29.74 "Hg (Aug 31, 8:00 PM)
Average68 °F81%29.99 "Hg
* Reported Aug 20 3:00 PM — Sep 4 3:00 PM, Annapolis County, Weather by CustomWeather, © 2015

Note: Actual official high and low records may vary slightly from our data, if they occured in-between our weather recording intervals... More about our weather records

Advertising

Annapolis County weather history for previous 24 hours

 ConditionsComfort  
Time TempWeatherWind HumidityBarometerVisibility
3:00 PM
Fri, Sep 4
71 °FMild.3 mph51%30.16 "HgN/A
2:00 PM70 °FMild.5 mph49%30.16 "HgN/A
1:00 PM69 °FMild.6 mph48%30.16 "HgN/A
12:00 PM67 °FMild.5 mph51%30.17 "HgN/A
11:00 AM65 °FMild.6 mph57%30.16 "HgN/A
10:00 AM63 °FMild.6 mph65%30.15 "HgN/A
9:00 AM59 °FCool.3 mph84%30.13 "HgN/A
8:00 AM51 °FCool.No wind94%30.11 "HgN/A
7:00 AM50 °FCool.2 mph94%30.08 "HgN/A
6:00 AM51 °FCool.1 mph94%30.06 "HgN/A
5:00 AM53 °FCool.1 mph92%30.04 "HgN/A
4:00 AM55 °FCool.2 mph90%30.03 "HgN/A
3:00 AM57 °FCool.5 mph88%30.01 "HgN/A
2:00 AM59 °FCool.3 mph88%30.00 "HgN/A
1:00 AM61 °FCool.5 mph86%29.97 "HgN/A
12:00 AM62 °FCool.5 mph85%29.94 "HgN/A
11:00 PM
Thu, Sep 3
62 °FMild.6 mph84%29.91 "HgN/A
10:00 PM65 °FMild.2 mph85%29.89 "HgN/A
9:00 PM67 °FMild.2 mph83%29.88 "HgN/A
8:00 PM71 °FMild.2 mph75%29.85 "HgN/A
7:00 PM76 °FMild.3 mph63%29.83 "HgN/A
6:00 PM80 °FWarm.3 mph54%29.82 "HgN/A
5:00 PM82 °FWarm.5 mph52%29.80 "HgN/A
4:00 PM80 °FWarm.7 mph57%29.80 "HgN/A
Weather by CustomWeather, © 2015

See weather overviewHow to use our weather pages